| time (UTC) | temp F | wind direction | speed knots | gust knots | rain 1hr in | rain 24hr in | rain mn in | humidity % | barometer mb |
| 20260507023014 | 61 | 2 | 4.3 | 5.2 | 0.00 | 0.02 | 0.02 | 86 | 1015.3 |
| 20260507022510 | 61 | 20 | 2.6 | 5.2 | 0.00 | 0.02 | 0.02 | 86 | 1014.8 |
| 20260507022006 | 61 | 36 | 6.1 | 9.6 | 0.00 | 0.02 | 0.02 | 86 | 1014.9 |
| 20260507021501 | 61 | 32 | 6.1 | 7.8 | 0.00 | 0.02 | 0.02 | 86 | 1014.6 |
| 20260507020958 | 61 | 37 | 2.6 | 4.3 | 0.00 | 0.02 | 0.02 | 86 | 1015.0 |
| 20260507020455 | 61 | 32 | 3.5 | 5.2 | 0.00 | 0.02 | 0.02 | 86 | 1014.7 |
| 20260507015952 | 61 | 336 | 3.5 | 6.1 | 0.00 | 0.02 | 0.02 | 86 | 1014.9 |
| 20260507015451 | 61 | 43 | 2.6 | 4.3 | 0.00 | 0.02 | 0.02 | 86 | 1014.8 |
| 20260507014947 | 61 | 352 | 4.3 | 7.0 | 0.00 | 0.02 | 0.02 | 86 | 1014.5 |
| 20260507014444 | 61 | 27 | 2.6 | 2.6 | 0.00 | 0.02 | 0.02 | 85 | 1014.3 |
| 20260507013940 | 61 | 21 | 3.5 | 7.0 | 0.00 | 0.02 | 0.02 | 86 | 1014.2 |
| 20260507013437 | 61 | 356 | 2.6 | 4.3 | 0.00 | 0.02 | 0.02 | 86 | 1014.6 |
| 20260507012935 | 61 | 40 | 3.5 | 5.2 | 0.00 | 0.02 | 0.02 | 86 | 1014.4 |
| 20260507012431 | 61 | 25 | 4.3 | 7.0 | 0.00 | 0.02 | 0.02 | 86 | 1014.1 |
| 20260507011928 | 61 | 25 | 3.5 | 5.2 | 0.00 | 0.02 | 0.02 | 86 | 1013.8 |
| 20260507011426 | 61 | 351 | 3.5 | 6.1 | 0.00 | 0.02 | 0.02 | 86 | 1013.7 |
| 20260507010925 | 61 | 42 | 4.3 | 5.2 | 0.00 | 0.02 | 0.02 | 86 | 1013.7 |
| 20260507010421 | 61 | 11 | 2.6 | 4.3 | 0.00 | 0.02 | 0.02 | 85 | 1013.9 |
| 20260507005918 | 61 | 19 | 1.7 | 1.7 | 0.00 | 0.02 | 0.02 | 85 | 1014.1 |
| 20260507005415 | 61 | 349 | 3.5 | 4.3 | 0.00 | 0.02 | 0.02 | 85 | 1013.8 |
| 20260507004911 | 61 | 26 | 3.5 | 5.2 | 0.00 | 0.02 | 0.02 | 85 | 1013.9 |
| 20260507004408 | 61 | 5 | 3.5 | 6.1 | 0.00 | 0.02 | 0.02 | 85 | 1013.5 |
| 20260507003906 | 61 | 42 | 7.0 | 11.3 | 0.00 | 0.02 | 0.02 | 85 | 1013.3 |
| 20260507003401 | 61 | 22 | 2.6 | 2.6 | 0.00 | 0.02 | 0.02 | 85 | 1013.7 |
| 20260507002856 | 61 | 32 | 3.5 | 5.2 | 0.00 | 0.02 | 0.02 | 85 | 1013.5 |
| 20260507002352 | 62 | 33 | 2.6 | 4.3 | 0.00 | 0.02 | 0.02 | 85 | 1013.4 |
| 20260507001850 | 62 | 35 | 2.6 | 4.3 | 0.00 | 0.02 | 0.02 | 85 | 1013.1 |
| 20260507001346 | 62 | 328 | 1.7 | 1.7 | 0.00 | 0.02 | 0.02 | 84 | 1013.7 |
| 20260507000843 | 61 | 13 | 3.5 | 4.3 | 0.00 | 0.02 | 0.02 | 85 | 1013.4 |
| 20260507000338 | 61 | 30 | 6.1 | 8.7 | 0.00 | 0.02 | 0.02 | 85 | 1013.7 |
| 20260506235835 | 61 | 25 | 3.5 | 4.3 | 0.00 | 0.02 | 0.02 | 85 | 1013.3 |
| 20260506235332 | 61 | 34 | 3.5 | 6.1 | 0.00 | 0.02 | 0.02 | 85 | 1013.1 |
| 20260506234828 | 61 | 3 | 2.6 | 2.6 | 0.00 | 0.02 | 0.02 | 85 | 1013.4 |
| 20260506234326 | 61 | 348 | 4.3 | 5.2 | 0.00 | 0.02 | 0.02 | 85 | 1013.7 |
| 20260506233824 | 62 | 346 | 5.2 | 7.8 | 0.00 | 0.02 | 0.02 | 84 | 1013.3 |
| 20260506233319 | 61 | 358 | 1.7 | 2.6 | 0.00 | 0.02 | 0.02 | 84 | 1013.0 |
| 20260506232817 | 61 | 14 | 6.1 | 7.8 | 0.00 | 0.02 | 0.02 | 84 | 1013.0 |
| 20260506232312 | 61 | 24 | 6.1 | 8.7 | 0.00 | 0.02 | 0.02 | 85 | 1013.1 |
| 20260506231809 | 62 | 336 | 2.6 | 4.3 | 0.00 | 0.02 | 0.02 | 84 | 1013.1 |
| 20260506231307 | 62 | 33 | 4.3 | 5.2 | 0.00 | 0.02 | 0.02 | 84 | 1013.0 |
| 20260506230804 | 62 | 15 | 4.3 | 5.2 | 0.00 | 0.02 | 0.02 | 84 | 1013.5 |
| 20260506230300 | 62 | 37 | 2.6 | 4.3 | 0.00 | 0.02 | 0.02 | 83 | 1013.1 |
| 20260506225756 | 62 | 339 | 3.5 | 6.1 | 0.00 | 0.02 | 0.02 | 83 | 1012.9 |
| 20260506225254 | 61 | 5 | 2.6 | 4.3 | 0.00 | 0.02 | 0.02 | 84 | 1012.9 |
| 20260506224745 | 61 | 340 | 6.1 | 7.0 | 0.00 | 0.02 | 0.02 | 85 | 1013.0 |
| 20260506224243 | 61 | 32 | 4.3 | 6.1 | 0.00 | 0.02 | 0.02 | 85 | 1013.2 |
| 20260506223738 | 61 | 26 | 2.6 | 5.2 | 0.00 | 0.02 | 0.02 | 85 | 1013.3 |
| 20260506223233 | 60 | 20 | 3.5 | 6.1 | 0.00 | 0.02 | 0.02 | 85 | 1013.0 |
| 20260506222731 | 60 | 353 | 1.7 | 2.6 | 0.00 | 0.02 | 0.02 | 85 | 1013.1 |
| 20260506222226 | 60 | 345 | 4.3 | 7.0 | 0.00 | 0.02 | 0.02 | 85 | 1013.0 |
| 20260506221724 | 61 | 15 | 5.2 | 7.0 | 0.00 | 0.02 | 0.02 | 85 | 1012.5 |
| 20260506221222 | 61 | 37 | 4.3 | 6.1 | 0.00 | 0.02 | 0.02 | 85 | 1013.0 |
| 20260506220714 | 60 | 16 | 4.3 | 7.8 | 0.00 | 0.02 | 0.02 | 86 | 1013.0 |
| 20260506220213 | 60 | 43 | 4.3 | 6.1 | 0.00 | 0.02 | 0.02 | 86 | 1013.0 |
| 20260506215710 | 60 | 17 | 6.1 | 8.7 | 0.00 | 0.02 | 0.02 | 86 | 1013.1 |
| 20260506215206 | 60 | 14 | 4.3 | 7.0 | 0.00 | 0.02 | 0.02 | 86 | 1013.0 |
| 20260506214703 | 60 | 349 | 7.8 | 13.9 | 0.00 | 0.02 | 0.02 | 86 | 1012.9 |
| 20260506214200 | 60 | 19 | 6.1 | 7.8 | 0.00 | 0.02 | 0.02 | 86 | 1012.9 |
| 20260506213659 | 60 | 18 | 7.8 | 12.2 | 0.00 | 0.02 | 0.02 | 85 | 1013.0 |
| 20260506213155 | 61 | 59 | 6.1 | 7.0 | 0.00 | 0.02 | 0.02 | 85 | 1012.6 |
| 20260506212653 | 61 | 340 | 3.5 | 6.1 | 0.00 | 0.02 | 0.02 | 84 | 1012.7 |
| 20260506212148 | 61 | 23 | 4.3 | 7.0 | 0.00 | 0.02 | 0.02 | 84 | 1013.0 |
| 20260506211644 | 61 | 39 | 6.1 | 7.8 | 0.00 | 0.02 | 0.02 | 84 | 1013.2 |
| 20260506211141 | 61 | 26 | 4.3 | 5.2 | 0.00 | 0.02 | 0.02 | 85 | 1013.1 |
| 20260506210638 | 61 | 59 | 5.2 | 7.0 | 0.00 | 0.02 | 0.02 | 83 | 1013.2 |
| 20260506210134 | 61 | 320 | 6.1 | 8.7 | 0.00 | 0.02 | 0.02 | 83 | 1013.2 |
| 20260506205631 | 62 | 343 | 6.1 | 7.8 | 0.00 | 0.02 | 0.02 | 83 | 1013.3 |
| 20260506205126 | 62 | 27 | 4.3 | 6.1 | 0.00 | 0.02 | 0.02 | 82 | 1013.3 |
| 20260506204625 | 63 | 333 | 2.6 | 4.3 | 0.00 | 0.02 | 0.02 | 82 | 1013.3 |
| 20260506204121 | 62 | 46 | 5.2 | 7.0 | 0.00 | 0.02 | 0.02 | 82 | 1013.2 |
| 20260506203619 | 61 | 7 | 7.8 | 9.6 | 0.00 | 0.02 | 0.02 | 84 | 1013.3 |
| 20260506203116 | 61 | 37 | 1.7 | 2.6 | 0.00 | 0.02 | 0.02 | 84 | 1013.6 |
| 20260506202614 | 62 | 2 | 1.7 | 1.7 | 0.00 | 0.02 | 0.02 | 83 | 1013.6 |
| 20260506202109 | 62 | 34 | 7.0 | 11.3 | 0.00 | 0.02 | 0.02 | 83 | 1013.2 |
| 20260506201607 | 62 | 3 | 6.1 | 12.2 | 0.00 | 0.02 | 0.02 | 83 | 1013.3 |
| 20260506201103 | 62 | 338 | 6.1 | 9.6 | 0.00 | 0.02 | 0.02 | 83 | 1013.2 |
| 20260506200559 | 62 | 52 | 6.1 | 7.8 | 0.00 | 0.02 | 0.02 | 83 | 1013.2 |
| 20260506200056 | 64 | 143 | 6.1 | 7.8 | 0.00 | 0.02 | 0.02 | 81 | 1013.1 |
| 20260506195553 | 64 | 317 | 10.4 | 17.4 | 0.00 | 0.02 | 0.02 | 80 | 1013.1 |
| 20260506195050 | 65 | 330 | 3.5 | 6.1 | 0.00 | 0.02 | 0.02 | 79 | 1013.1 |
| 20260506194548 | 65 | 324 | 5.2 | 7.8 | 0.00 | 0.02 | 0.02 | 80 | 1013.1 |
| 20260506194043 | 65 | 15 | 7.0 | 11.3 | 0.00 | 0.02 | 0.02 | 81 | 1013.1 |
| 20260506193541 | 65 | 22 | 6.1 | 8.7 | 0.00 | 0.02 | 0.02 | 81 | 1013.2 |
| 20260506193038 | 65 | 335 | 5.2 | 7.8 | 0.00 | 0.02 | 0.02 | 82 | 1013.0 |
| 20260506192534 | 64 | 35 | 7.8 | 12.2 | 0.00 | 0.02 | 0.02 | 82 | 1013.1 |
| 20260506192030 | 65 | 20 | 2.6 | 6.1 | 0.00 | 0.02 | 0.02 | 83 | 1012.9 |
| 20260506191527 | 65 | 37 | 7.8 | 13.9 | 0.00 | 0.02 | 0.02 | 83 | 1013.1 |
| 20260506191023 | 64 | 352 | 13.0 | 15.6 | 0.00 | 0.02 | 0.02 | 85 | 1013.2 |
| 20260506190521 | 65 | 28 | 5.2 | 7.0 | 0.00 | 0.02 | 0.02 | 83 | 1013.0 |
| 20260506190019 | 65 | 341 | 9.6 | 13.0 | 0.00 | 0.02 | 0.02 | 85 | 1013.2 |
| 20260506185515 | 66 | 354 | 10.4 | 14.8 | 0.00 | 0.02 | 0.02 | 83 | 1013.0 |
| 20260506185011 | 67 | 38 | 7.8 | 9.6 | 0.00 | 0.02 | 0.02 | 82 | 1013.2 |
| 20260506184509 | 67 | 328 | 6.1 | 12.2 | 0.00 | 0.02 | 0.02 | 82 | 1013.1 |
| 20260506184006 | 68 | 27 | 7.0 | 8.7 | 0.00 | 0.02 | 0.02 | 81 | 1012.9 |
| 20260506183501 | 73 | 37 | 7.8 | 9.6 | 0.00 | 0.02 | 0.02 | 76 | 1012.9 |
| 20260506182958 | 73 | 43 | 4.3 | 7.0 | 0.00 | 0.02 | 0.02 | 75 | 1012.5 |
| 20260506182455 | 75 | 39 | 4.3 | 7.8 | 0.00 | 0.02 | 0.02 | 74 | 1012.6 |
| 20260506181948 | 75 | 7 | 1.7 | 2.6 | 0.00 | 0.02 | 0.02 | 73 | 1012.7 |
| 20260506181446 | 74 | 21 | 2.6 | 2.6 | 0.00 | 0.02 | 0.02 | 74 | 1012.7 |
| 20260506180942 | 74 | 58 | 5.2 | 6.1 | 0.00 | 0.02 | 0.02 | 74 | 1012.9 |
| 20260506180438 | 74 | 333 | 2.6 | 4.3 | 0.00 | 0.02 | 0.02 | 73 | 1012.7 |
| 20260506175935 | 73 | 74 | 3.5 | 4.3 | 0.00 | 0.02 | 0.02 | 77 | 1012.6 |
| 20260506175432 | 73 | 14 | 0.9 | 0.9 | 0.00 | 0.02 | 0.02 | 76 | 1012.6 |
| 20260506174928 | 72 | 13 | 4.3 | 6.1 | 0.00 | 0.02 | 0.02 | 78 | 1012.6 |
| 20260506174426 | 71 | 93 | 2.6 | 5.2 | 0.00 | 0.02 | 0.02 | 79 | 1012.1 |
| 20260506173917 | 71 | 306 | 0.9 | 1.7 | 0.00 | 0.02 | 0.02 | 80 | 1012.1 |
| 20260506173414 | 71 | 53 | 2.6 | 6.1 | 0.00 | 0.02 | 0.02 | 80 | 1012.1 |
| 20260506172911 | 69 | 80 | 3.5 | 6.1 | 0.00 | 0.02 | 0.02 | 82 | 1012.2 |
| 20260506172407 | 69 | 339 | 1.7 | 4.3 | 0.00 | 0.02 | 0.02 | 82 | 1012.3 |
| 20260506171905 | 68 | 325 | 0.9 | 1.7 | 0.00 | 0.02 | 0.02 | 84 | 1012.1 |
| 20260506171402 | 68 | 352 | 1.7 | 2.6 | 0.00 | 0.02 | 0.02 | 85 | 1012.3 |
| 20260506170859 | 66 | 11 | 2.6 | 4.3 | 0.00 | 0.02 | 0.02 | 88 | 1012.3 |
| 20260506170355 | 65 | 83 | 7.0 | 8.7 | 0.00 | 0.02 | 0.02 | 90 | 1012.2 |
| 20260506165849 | 64 | 0 | 7.8 | 11.3 | 0.00 | 0.02 | 0.02 | 93 | 1012.3 |
| 20260506165346 | 64 | 44 | 3.5 | 6.1 | 0.00 | 0.02 | 0.02 | 94 | 1012.3 |
| 20260506164842 | 62 | 65 | 7.0 | 11.3 | 0.00 | 0.02 | 0.02 | 95 | 1012.3 |
| 20260506164339 | 62 | 56 | 5.2 | 7.8 | 0.00 | 0.02 | 0.02 | 95 | 1012.3 |
| 20260506163837 | 62 | 65 | 5.2 | 7.0 | 0.00 | 0.02 | 0.02 | 95 | 1012.9 |
| 20260506163331 | 61 | 25 | 4.3 | 5.2 | 0.00 | 0.02 | 0.02 | 95 | 1012.6 |
| 20260506162827 | 62 | 346 | 4.3 | 6.1 | 0.07 | 0.02 | 0.02 | 95 | 1013.1 |
| 20260506162325 | 62 | 64 | 7.8 | 11.3 | 0.12 | 0.02 | 0.02 | 95 | 1013.2 |
| 20260506161822 | 61 | 7 | 7.0 | 9.6 | 0.05 | 0.01 | 0.01 | 95 | 1013.4 |
| 20260506161319 | 61 | 347 | 4.3 | 6.1 | 0.00 | 0.00 | 0.00 | 94 | 1013.6 |
| 20260506160812 | 61 | 52 | 6.1 | 9.6 | 0.00 | 0.00 | 0.00 | 93 | 1013.6 |
| 20260506160308 | 61 | 357 | 7.8 | 12.2 | 0.00 | 0.00 | 0.00 | 92 | 1013.6 |
| 20260506155807 | 61 | 37 | 7.0 | 9.6 | 0.00 | 0.00 | 0.00 | 91 | 1014.1 |
| 20260506155306 | 61 | 32 | 6.1 | 12.2 | 0.00 | 0.00 | 0.00 | 92 | 1014.0 |
| 20260506153415 | 63 | 53 | 7.8 | 13.9 | 0.00 | 0.00 | 0.00 | 92 | 1013.3 |
| 20260506152913 | 63 | 39 | 4.3 | 6.1 | 0.00 | 0.00 | 0.00 | 92 | 1013.6 |
| 20260506152409 | 64 | 57 | 6.1 | 13.0 | 0.00 | 0.00 | 0.00 | 92 | 1013.4 |
| 20260506151908 | 64 | 40 | 7.8 | 12.2 | 0.00 | 0.00 | 0.00 | 92 | 1013.3 |
| 20260506151404 | 65 | 17 | 4.3 | 5.2 | 0.00 | 0.00 | 0.00 | 92 | 1013.2 |
| 20260506150902 | 65 | 350 | 5.2 | 8.7 | 0.00 | 0.00 | 0.00 | 92 | 1013.1 |
| 20260506150358 | 65 | 357 | 3.5 | 5.2 | 0.00 | 0.00 | 0.00 | 92 | 1013.0 |
| 20260506145855 | 65 | 336 | 4.3 | 7.0 | 0.00 | 0.00 | 0.00 | 92 | 1012.7 |
| 20260506145351 | 66 | 18 | 7.0 | 12.2 | 0.00 | 0.00 | 0.00 | 92 | 1012.6 |
| 20260506144849 | 66 | 14 | 4.3 | 7.0 | 0.00 | 0.00 | 0.00 | 92 | 1012.2 |
| 20260506144345 | 67 | 48 | 9.6 | 13.0 | 0.00 | 0.00 | 0.00 | 91 | 1011.7 |
| 20260506143844 | 68 | 15 | 6.1 | 7.8 | 0.00 | 0.00 | 0.00 | 91 | 1011.8 |
| 20260506143340 | 69 | 325 | 6.1 | 7.8 | 0.00 | 0.00 | 0.00 | 90 | 1011.9 |
| 20260506142839 | 72 | 338 | 7.0 | 9.6 | 0.00 | 0.00 | 0.00 | 87 | 1011.4 |
| 20260506142336 | 77 | 317 | 0.0 | 0.0 | 0.00 | 0.00 | 0.00 | 86 | 1011.3 |
| 20260506141834 | 77 | 275 | 1.7 | 2.6 | 0.00 | 0.00 | 0.00 | 88 | 1010.7 |
| 20260506141332 | 76 | 201 | 0.0 | 0.9 | 0.00 | 0.00 | 0.00 | 89 | 1010.7 |
| 20260506140830 | 76 | 161 | 1.7 | 2.6 | 0.00 | 0.00 | 0.00 | 89 | 1010.8 |
| 20260506140327 | 76 | 128 | 3.5 | 5.2 | 0.00 | 0.00 | 0.00 | 89 | 1011.0 |
| 20260506135824 | 76 | 271 | 0.9 | 1.7 | 0.00 | 0.00 | 0.00 | 90 | 1010.8 |
| 20260506135320 | 75 | 295 | 0.9 | 0.9 | 0.00 | 0.00 | 0.00 | 90 | 1011.2 |
| 20260506134817 | 75 | 299 | 0.0 | 0.9 | 0.00 | 0.00 | 0.00 | 91 | 1011.0 |
| 20260506134313 | 75 | 283 | 1.7 | 1.7 | 0.00 | 0.00 | 0.00 | 91 | 1010.6 |
| 20260506133810 | 75 | 215 | 0.9 | 0.9 | 0.00 | 0.00 | 0.00 | 92 | 1010.5 |
| 20260506133307 | 75 | 318 | 0.9 | 0.9 | 0.00 | 0.00 | 0.00 | 92 | 1010.8 |
| 20260506132804 | 74 | 302 | 0.9 | 0.9 | 0.00 | 0.00 | 0.00 | 92 | 1010.9 |
| 20260506132301 | 74 | 302 | 1.7 | 1.7 | 0.00 | 0.00 | 0.00 | 93 | 1010.7 |
| 20260506131759 | 74 | 191 | 3.5 | 4.3 | 0.00 | 0.00 | 0.00 | 93 | 1010.7 |
| 20260506131254 | 75 | 204 | 2.6 | 4.3 | 0.00 | 0.00 | 0.00 | 92 | 1010.3 |
| 20260506130751 | 75 | 219 | 4.3 | 5.2 | 0.00 | 0.00 | 0.00 | 92 | 1010.2 |
| 20260506130248 | 75 | 139 | 3.5 | 5.2 | 0.00 | 0.00 | 0.00 | 93 | 1010.2 |
| 20260506125746 | 74 | 175 | 2.6 | 2.6 | 0.00 | 0.00 | 0.00 | 94 | 1010.2 |
| 20260506125244 | 74 | 169 | 2.6 | 2.6 | 0.00 | 0.00 | 0.00 | 94 | 1010.0 |
| 20260506124742 | 74 | 173 | 1.7 | 1.7 | 0.00 | 0.00 | 0.00 | 93 | 1010.3 |
| 20260506124239 | 74 | 143 | 4.3 | 5.2 | 0.00 | 0.00 | 0.00 | 94 | 1010.1 |
| 20260506123737 | 73 | 137 | 2.6 | 2.6 | 0.00 | 0.00 | 0.00 | 94 | 1009.6 |
| 20260506123235 | 73 | 193 | 2.6 | 4.3 | 0.00 | 0.00 | 0.00 | 94 | 1010.1 |
| 20260506122732 | 73 | 178 | 2.6 | 4.3 | 0.00 | 0.00 | 0.00 | 94 | 1009.8 |
| 20260506122229 | 73 | 197 | 3.5 | 4.3 | 0.00 | 0.00 | 0.00 | 95 | 1009.6 |
| 20260506121728 | 73 | 204 | 1.7 | 2.6 | 0.00 | 0.00 | 0.00 | 95 | 1009.8 |
| 20260506121224 | 73 | 249 | 2.6 | 4.3 | 0.00 | 0.00 | 0.00 | 95 | 1010.0 |
| 20260506120722 | 73 | 220 | 3.5 | 4.3 | 0.00 | 0.00 | 0.00 | 95 | 1009.9 |
| 20260506120219 | 73 | 208 | 2.6 | 4.3 | 0.00 | 0.00 | 0.00 | 94 | 1009.9 |
| 20260506115717 | 73 | 212 | 3.5 | 4.3 | 0.00 | 0.00 | 0.00 | 94 | 1010.0 |
| 20260506115214 | 73 | 266 | 2.6 | 2.6 | 0.00 | 0.00 | 0.00 | 94 | 1009.8 |
| 20260506114712 | 73 | 235 | 4.3 | 5.2 | 0.00 | 0.00 | 0.00 | 94 | 1009.9 |
| 20260506114209 | 73 | 198 | 4.3 | 6.1 | 0.00 | 0.00 | 0.00 | 94 | 1009.6 |
| 20260506113708 | 73 | 208 | 4.3 | 6.1 | 0.00 | 0.00 | 0.00 | 94 | 1009.6 |
| 20260506113205 | 73 | 251 | 4.3 | 5.2 | 0.00 | 0.00 | 0.00 | 94 | 1009.8 |
| 20260506112701 | 73 | 199 | 3.5 | 4.3 | 0.00 | 0.00 | 0.00 | 94 | 1009.9 |
| 20260506112159 | 73 | 257 | 3.5 | 4.3 | 0.00 | 0.00 | 0.00 | 94 | 1010.0 |
| 20260506111656 | 73 | 237 | 1.7 | 1.7 | 0.00 | 0.00 | 0.00 | 94 | 1010.3 |
| 20260506111154 | 73 | 253 | 2.6 | 2.6 | 0.00 | 0.00 | 0.00 | 94 | 1010.0 |
| 20260506110651 | 73 | 264 | 1.7 | 1.7 | 0.00 | 0.00 | 0.00 | 94 | 1010.1 |
| 20260506110148 | 73 | 220 | 3.5 | 4.3 | 0.00 | 0.00 | 0.00 | 94 | 1010.1 |
| 20260506105644 | 73 | 246 | 2.6 | 2.6 | 0.00 | 0.00 | 0.00 | 94 | 1010.0 |
| 20260506105141 | 74 | 221 | 3.5 | 4.3 | 0.00 | 0.00 | 0.00 | 93 | 1009.9 |
| 20260506104640 | 74 | 224 | 4.3 | 5.2 | 0.00 | 0.00 | 0.00 | 93 | 1010.1 |
| 20260506104137 | 74 | 210 | 3.5 | 5.2 | 0.00 | 0.00 | 0.00 | 93 | 1009.8 |
| 20260506103634 | 74 | 224 | 5.2 | 5.2 | 0.00 | 0.00 | 0.00 | 93 | 1009.9 |
| 20260506103131 | 74 | 259 | 2.6 | 2.6 | 0.00 | 0.00 | 0.00 | 93 | 1009.6 |
| 20260506102629 | 74 | 220 | 4.3 | 5.2 | 0.00 | 0.00 | 0.00 | 93 | 1009.9 |
| 20260506102126 | 74 | 251 | 2.6 | 4.3 | 0.00 | 0.00 | 0.00 | 93 | 1009.9 |
| 20260506101623 | 74 | 235 | 3.5 | 4.3 | 0.00 | 0.00 | 0.00 | 93 | 1009.6 |
| 20260506101119 | 74 | 221 | 4.3 | 5.2 | 0.00 | 0.00 | 0.00 | 93 | 1009.3 |
| 20260506100618 | 74 | 240 | 5.2 | 6.1 | 0.00 | 0.00 | 0.00 | 92 | 1009.5 |
| 20260506100116 | 74 | 220 | 5.2 | 7.0 | 0.00 | 0.00 | 0.00 | 92 | 1009.4 |
| 20260506095615 | 74 | 223 | 5.2 | 6.1 | 0.00 | 0.00 | 0.00 | 92 | 1009.1 |
| 20260506095111 | 74 | 221 | 4.3 | 5.2 | 0.00 | 0.00 | 0.00 | 92 | 1009.4 |
| 20260506094608 | 74 | 218 | 4.3 | 6.1 | 0.00 | 0.00 | 0.00 | 92 | 1009.3 |
| 20260506094106 | 74 | 204 | 5.2 | 6.1 | 0.00 | 0.00 | 0.00 | 92 | 1009.3 |
| 20260506093604 | 74 | 215 | 3.5 | 5.2 | 0.00 | 0.00 | 0.00 | 92 | 1009.1 |
| 20260506093101 | 74 | 198 | 4.3 | 4.3 | 0.00 | 0.00 | 0.00 | 92 | 1009.0 |
| 20260506092559 | 74 | 208 | 5.2 | 6.1 | 0.00 | 0.00 | 0.00 | 92 | 1008.8 |
| 20260506092055 | 74 | 232 | 7.0 | 7.8 | 0.00 | 0.00 | 0.00 | 92 | 1008.9 |
| 20260506091554 | 74 | 238 | 5.2 | 6.1 | 0.00 | 0.00 | 0.00 | 92 | 1008.9 |
| 20260506091051 | 74 | 212 | 6.1 | 7.0 | 0.00 | 0.00 | 0.00 | 92 | 1008.8 |
| 20260506090549 | 74 | 239 | 5.2 | 6.1 | 0.00 | 0.00 | 0.00 | 92 | 1008.6 |
| 20260506090045 | 74 | 214 | 4.3 | 5.2 | 0.00 | 0.00 | 0.00 | 92 | 1008.8 |
| 20260506085542 | 74 | 219 | 9.6 | 11.3 | 0.00 | 0.00 | 0.00 | 92 | 1008.6 |
| 20260506085038 | 74 | 198 | 7.0 | 8.7 | 0.00 | 0.00 | 0.00 | 92 | 1008.6 |
| 20260506084535 | 74 | 196 | 6.1 | 7.8 | 0.00 | 0.00 | 0.00 | 92 | 1008.5 |
| 20260506084031 | 74 | 215 | 4.3 | 5.2 | 0.00 | 0.00 | 0.00 | 92 | 1008.8 |
| 20260506083528 | 74 | 257 | 5.2 | 5.2 | 0.00 | 0.00 | 0.00 | 92 | 1008.8 |
| 20260506083026 | 74 | 180 | 7.8 | 8.7 | 0.00 | 0.00 | 0.00 | 92 | 1008.6 |
| 20260506082523 | 74 | 222 | 7.0 | 8.7 | 0.00 | 0.00 | 0.00 | 92 | 1008.7 |
| 20260506082018 | 74 | 208 | 7.0 | 8.7 | 0.00 | 0.00 | 0.00 | 92 | 1008.4 |
| 20260506081517 | 74 | 213 | 6.1 | 7.8 | 0.00 | 0.00 | 0.00 | 92 | 1008.5 |
| 20260506081014 | 74 | 241 | 5.2 | 6.1 | 0.00 | 0.00 | 0.00 | 92 | 1008.5 |
| 20260506080511 | 74 | 203 | 9.6 | 11.3 | 0.00 | 0.00 | 0.00 | 92 | 1008.7 |
| 20260506073454 | 74 | 203 | 9.6 | 13.0 | 0.00 | 0.00 | 0.00 | 92 | 1008.8 |
| 20260506072952 | 74 | 185 | 11.3 | 14.8 | 0.00 | 0.00 | 0.00 | 91 | 1008.8 |
| 20260506072449 | 74 | 174 | 9.6 | 12.2 | 0.00 | 0.00 | 0.00 | 91 | 1009.0 |
| 20260506071947 | 74 | 194 | 9.6 | 11.3 | 0.00 | 0.00 | 0.00 | 91 | 1009.2 |
| 20260506071444 | 74 | 212 | 8.7 | 11.3 | 0.00 | 0.00 | 0.00 | 91 | 1008.8 |
| 20260506070941 | 74 | 206 | 9.6 | 11.3 | 0.00 | 0.00 | 0.00 | 91 | 1008.9 |
| 20260506070438 | 74 | 203 | 10.4 | 12.2 | 0.00 | 0.00 | 0.00 | 91 | 1008.9 |
| 20260506062416 | 74 | 204 | 13.9 | 14.8 | 0.00 | 0.00 | 0.00 | 91 | 1008.8 |
| 20260506061911 | 74 | 210 | 9.6 | 11.3 | 0.00 | 0.00 | 0.00 | 91 | 1008.7 |
| 20260506061408 | 74 | 218 | 10.4 | 14.8 | 0.00 | 0.00 | 0.00 | 91 | 1008.9 |
| 20260506060906 | 75 | 198 | 7.8 | 11.3 | 0.00 | 0.00 | 0.00 | 91 | 1009.3 |
| 20260506060404 | 75 | 210 | 7.0 | 9.6 | 0.00 | 0.00 | 0.00 | 91 | 1008.8 |
| 20260506051336 | 75 | 231 | 7.8 | 9.6 | 0.00 | 0.00 | 0.00 | 92 | 1009.0 |
| 20260506050833 | 75 | 244 | 7.0 | 7.8 | 0.00 | 0.00 | 0.00 | 91 | 1009.1 |
| 20260506050330 | 75 | 200 | 5.2 | 6.1 | 0.00 | 0.00 | 0.00 | 91 | 1008.9 |
| 20260506044821 | 75 | 179 | 6.1 | 7.8 | 0.00 | 0.00 | 0.00 | 91 | 1009.1 |
| 20260506044319 | 75 | 235 | 5.2 | 7.8 | 0.00 | 0.00 | 0.00 | 91 | 1008.9 |
| 20260506043815 | 75 | 243 | 7.8 | 9.6 | 0.00 | 0.00 | 0.00 | 91 | 1008.8 |
| 20260506043313 | 75 | 193 | 9.6 | 11.3 | 0.00 | 0.00 | 0.00 | 91 | 1009.3 |
| 20260506042811 | 75 | 189 | 6.1 | 7.8 | 0.00 | 0.00 | 0.00 | 91 | 1008.9 |
| 20260506042310 | 75 | 198 | 7.0 | 9.6 | 0.00 | 0.00 | 0.00 | 91 | 1008.8 |
| 20260506041808 | 75 | 194 | 5.2 | 6.1 | 0.00 | 0.00 | 0.00 | 91 | 1009.0 |
| 20260506041305 | 75 | 182 | 9.6 | 11.3 | 0.00 | 0.00 | 0.00 | 91 | 1008.8 |
| 20260506040802 | 75 | 184 | 6.1 | 7.8 | 0.00 | 0.00 | 0.00 | 90 | 1009.0 |
| 20260506040259 | 75 | 203 | 4.3 | 4.3 | 0.00 | 0.00 | 0.00 | 90 | 1008.9 |
| 20260506035756 | 75 | 251 | 4.3 | 5.2 | 0.00 | 0.00 | 0.00 | 90 | 1008.9 |
| 20260506035253 | 76 | 229 | 7.8 | 8.7 | 0.00 | 0.00 | 0.00 | 90 | 1008.8 |
| 20260506034750 | 76 | 221 | 7.8 | 9.6 | 0.00 | 0.00 | 0.00 | 89 | 1008.6 |
| 20260506034247 | 76 | 194 | 4.3 | 6.1 | 0.00 | 0.00 | 0.00 | 89 | 1008.7 |
| 20260506033744 | 76 | 198 | 7.8 | 8.7 | 0.00 | 0.00 | 0.00 | 89 | 1008.3 |
| 20260506033241 | 76 | 175 | 6.1 | 7.8 | 0.00 | 0.00 | 0.00 | 88 | 1008.5 |
| 20260506032738 | 77 | 201 | 7.0 | 7.0 | 0.00 | 0.00 | 0.00 | 87 | 1008.5 |
| 20260506032235 | 77 | 220 | 5.2 | 7.0 | 0.00 | 0.00 | 0.00 | 87 | 1008.5 |
| 20260506031726 | 77 | 184 | 5.2 | 7.8 | 0.00 | 0.00 | 0.00 | 86 | 1008.4 |
| 20260506031224 | 77 | 185 | 2.6 | 2.6 | 0.00 | 0.00 | 0.00 | 86 | 1008.4 |
| 20260506030722 | 77 | 210 | 6.1 | 7.0 | 0.00 | 0.00 | 0.00 | 86 | 1008.2 |
| 20260506030219 | 77 | 205 | 3.5 | 4.3 | 0.00 | 0.00 | 0.00 | 85 | 1008.2 |
| 20260506025716 | 77 | 218 | 3.5 | 5.2 | 0.00 | 0.00 | 0.00 | 85 | 1008.1 |
| 20260506025212 | 77 | 230 | 4.3 | 5.2 | 0.00 | 0.00 | 0.00 | 85 | 1008.0 |
| 20260506024709 | 77 | 259 | 1.7 | 1.7 | 0.00 | 0.00 | 0.00 | 84 | 1007.9 |
| 20260506024205 | 78 | 215 | 4.3 | 5.2 | 0.00 | 0.00 | 0.00 | 84 | 1008.0 |
| 20260506023702 | 78 | 199 | 5.2 | 6.1 | 0.00 | 0.00 | 0.00 | 83 | 1008.0 |